This is the latest recevied weather packets stored in our database for station/object KC0QBU-13. If no packets are shown the sender has not sent any weather packets the latest 10 day(s).
| Time | Temp. | Humidity | Pressure | Rain* | Wind** | Luminosity | Snow |
|---|---|---|---|---|---|---|---|
| 1777559869 | 13.89° C | 59% | 1019.6 hPa | 0 mm | - | - | - |
| 1777559569 | 13.89° C | 57% | 1019.8 hPa | 0 mm | - | - | - |
| 1777559239 | 13.89° C | 57% | 1019.7 hPa | 0 mm | - | - | - |
| 1777558909 | 13.89° C | 60% | 1019.7 hPa | 0 mm | - | - | - |
| 1777558579 | 13.89° C | 60% | 1019.7 hPa | 0 mm | - | - | - |
| 1777558249 | 13.33° C | 62% | 1019.7 hPa | 0 mm | - | - | - |
| 1777557919 | 13.33° C | 63% | 1019.8 hPa | 0 mm | - | - | - |
| 1777557619 | 13.33° C | 62% | 1019.7 hPa | 0 mm | - | - | - |
| 1777557319 | 13.33° C | 63% | 1019.6 hPa | 0 mm | - | - | - |
| 1777556989 | 12.78° C | 63% | 1019.7 hPa | 0 mm | - | - | - |
| 1777556689 | 12.78° C | 64% | 1019.7 hPa | 0 mm | - | - | - |
| 1777556389 | 12.22° C | 64% | 1019.6 hPa | 0 mm | - | - | - |
| 1777556059 | 12.22° C | 68% | 1019.7 hPa | 0 mm | - | - | - |
| 1777555729 | 11.67° C | 70% | 1019.7 hPa | 0 mm | - | - | - |
| 1777555429 | 11.11° C | 73% | 1019.7 hPa | 0 mm | - | - | - |
| 1777555129 | 11.11° C | 72% | 1019.7 hPa | 0 mm | - | - | - |
| 1777554829 | 10.56° C | 73% | 1019.7 hPa | 0 mm | - | - | - |
| 1777554529 | 10.56° C | 75% | 1019.7 hPa | 0 mm | - | - | - |
| 1777554229 | 10° C | 75% | 1019.6 hPa | 0 mm | - | - | - |
| 1777553929 | 10° C | 76% | 1019.7 hPa | 0 mm | - | - | - |
| 1777553629 | 9.44° C | 77% | 1019.7 hPa | 0 mm | - | - | - |
| 1777553329 | 9.44° C | 78% | 1019.6 hPa | 0 mm | - | - | - |
| 1777553029 | 8.89° C | 79% | 1019.6 hPa | 0 mm | - | - | - |
| 1777552699 | 8.33° C | 80% | 1019.4 hPa | 0 mm | - | - | - |
| 1777552399 | 8.33° C | 82% | 1019.5 hPa | 0 mm | - | - | - |
* Rain latest hour (hover to see other rain measurements)
** Current wind speed in m/s (hover to see current wind gust speed)